ONEWEB-0043, 45149

Orbit data source: Space-Track

ONEWEB-0043, 45149 is a payload satellite owned by One Web (UK) in LEO that was launched on Thu, 06 Feb 2020 UTC via a SOYUZ-2-1B launch vehicle from the Tyuratam Missile And Space Complex (TTMTR). Payload-class satellites include a variety of spacecraft equipped with specific instruments for various scientific and technological missions. These include communications satellites like Starlink; space stations such as the ISS; scientific satellites like the Hubble; Earth observation satellites from companies like Planet Labs, Umbra, and HawkEye 360; GPS; miniature CubeSats for education and research; and military/defense satellites.

Loading next visibility...
Identifier
45149, 2020-008U
Orbit
LEO
Country
Flag of UKUK
Related business
Manufacturer
One Web
Mission
Operational Commercial Communications
Bus & Motor
ARROW, Unknown motor
Mass
148 kg wet, ~140 kg dry
Launch date (UTC)
2020-02-06 (6 years ago)
Launch vehicle
SOYUZ-2-1B
Launch site
Tyuratam Missile And Space Complex (TTMTR)
Object type
Payload
Rocket body
Debris
Shape & HBR
Trap Box + 2 Pan, 6.7 m
Radar Cross Section
3.464 m², Large (>1 m²)

Expand to show TLE details & history
Last TLE update: 20 hours ago

TLE from 20 hours ago
0 ONEWEB-0043
1 45149U 20008U   25286.87459173  .00000020  00000-0  20052-4 0  9995
2 45149  87.8751  85.3742 0001377  76.5556 283.5725 13.10378216275921
Epoch: 2025-10-13T20:59Z
TLE epoch observation values (Epoch: 2025-10-13T20:59:24.725Z)
Latitude
Longitude
107.85007°
Altitude
1,224.338 km
Speed
7.242 km/s
True Right ascension
05h 41m 29s
True Declination
0° 00' 00"
Sunlit
Object was in daylight at epoch
Visualization orbit readout
Latitude
Unknown
Longitude
Unknown
Altitude
Unknown
Speed
Unknown
Apparent Right ascension
Unknown
Apparent Declination
Unknown
Sunlit
N/A
Visualization observer readout
Local Sidereal Time
11:31:10
Azimuth
Unknown
Elevation
Unknown
Doppler factor
Unknown
Orbital elements
Apogee altitude
1,219.862 km
Perigee altitude
1,217.77 km
Semi-major axis
7,596.953 km
Eccentricity
0.00014
Inclination
87.8751°
RAAN
85.3742°
Arg. of periapsis
76.5556°
True anomaly
283.55716°
Mean anomaly
283.5725°
Eccentric anomaly
283.56483°
Mean motion
3.27781 °/min
Orbital period
109.83 mins
BSTAR
0.000020052
Loading maneuver chart data...
Computing Atmospheric mass density...
Loading historical data...
Loading historical data...
Loading historical data...
Loading historical data...
Loading historical data...
Loading historical data...
Loading historical data...

Documentation

Showing up to 5 results
|